Regional Weather Roundup
Issued by NWS Newport/Morehead, NC

Current Version | Previous Version | Text Only | Print | Product List | Glossary Off
Versions: 1 2 3 4 5 6 7 8 9 10 11 12 13 14 15 16 17 18 19 20 21 22 23 24 25 26 27 28 29 30 31 32 33 34 35 36 37 38 39 40 41 42 43 44 45 46 47 48 49 50
000 ASUS42 KMHX 270825 RWRMHX WEATHER ROUNDUP FOR EASTERN NORTH CAROLINA NATIONAL WEATHER SERVICE NEWPORT/MOREHEAD CITY NC 400 AM EDT THU AUG 27 2015 NOTE: "FAIR" INDICATES FEW OR NO CLOUDS BELOW 12,000 FEET WITH NO SIGNIFICANT WEATHER AND/OR OBSTRUCTIONS TO VISIBILITY NCZ015>017-031-032-045>047-102-103-270900- NORTH COAST CITY SKY/WX TMP DP RH WIND PRES REMARKS EDENTON CLOUDY 71 64 79 N6 29.99F ELIZABETH CITY CLOUDY 73 66 78 N9 30.00R KITTY HAWK CLOUDY 77 67 71 NE7 29.97S MANTEO CLOUDY 76 68 77 NE13 29.98S $$ NCZ045>047-081-094-103-104-270900- CENTRAL COAST CITY SKY/WX TMP DP RH WIND PRES REMARKS FRISCO LGT RAIN 71 68 90 E7 29.97S SWANQUARTER NOT AVBL $$ NCZ095-097-098-100-101-270900- SOUTHERN COAST CITY SKY/WX TMP DP RH WIND PRES REMARKS BEAUFORT CLOUDY 74 73 97 CALM 29.95F CEDAR ISLAND NOT AVBL JACKSONVILLE CLOUDY 72 70 93 NE6 29.95F PINEY ISLAND CLOUDY N/A N/A N/A NE12 29.95F WILMINGTON CLOUDY 72 68 87 NE8 29.94F $$ NCZ011>013-027>030-043-044-078>080-089-090>093-098-270900- COASTAL PLAIN CITY SKY/WX TMP DP RH WIND PRES REMARKS AHOSKIE MOCLDY 68 62 80 N3 30.01S CLINTON CLOUDY 72 70 96 N5 29.98S ELIZABETHTOWN CLOUDY 72 72 100 CALM 29.96F FOG GOLDSBORO MOCLDY 72 70 94 NE10 29.97F GREENVILLE CLOUDY 72 68 88 N6 30.01S HAVELOCK CLOUDY 75 73 93 NE7 29.96F KENANSVILLE N/A 70 70 98 CALM 29.98S FOG KINSTON MOCLDY 72 70 93 N6 29.99S NEW BERN CLOUDY 72 70 93 NE7 29.97F RICHLANDS CLOUDY 72 66 83 N5 29.96F ROCKY MOUNT PTCLDY 70 65 84 N8 30.01F WASHINGTON MOCLDY 71 68 89 NE8 29.98F WHITEVILLE CLOUDY 72 69 93 NE3 29.95S $$ AMZ130-135-150-152-154-156-158-170-250-252-270-ANZ085-086-088-633-658-670-270900- MARINE OBSERVATIONS STATION/POSITION TIME TEMP WIND PRES WAVE SWELL AIR SEA DIR/SP/G HT/PER HT/PER (UTC) (F) (DEG/KT/KT) (MB) (FT/S) (FT/S) CHESAPEAKE LIGHT 0800 76 20/ 17/ 18 1016.4 64 E VA BEACH 0750 78 79 30/ 16/ 17 1015.1 4/10 3/10 DUCK NOT AVBL 2 E DUCK 0711 79 N/A 4/10 2/11 OREGON INLET NOT AVBL 13E OREGON INLT 0800 80 N/A 4/ 5 2/11 HATTERAS CG NOT AVBL DIAMOND BUOY 0750 81 85 310/ 8/ 17 1014.7 3/11 3/11 CAPE LOOKOUT 0800 78 90/ 1/ 2 1013.9 BEAUFORT LAB NOT AVBL 30 SE NEW RVR IN 0708 75 82 110/ 8/ 12 1014.8 30 SE NEW RVR IN 0725 82 N/A 3/11 2/11 27 SE WRIGHTSVLE 0800 74 82 90/ 16/ 19 N/A 5 SE WRIGHTSVLE 0708 78 83 60/ 14/ 17 1013.7 225 S CAPE HAT 0750 83 84 220/ 10/ 12 1013.6 4/10 3/10 41 SE CHARLESTON 0750 81 85 150/ 14/ 16 1012.5 3/ 4 2/11 $$

USA.gov is the U.S. government's official web portal to all federal, state and local government web resources and services.